Location: Hawks Ness
(60.2333°N, 1.1667°W)
Time: 11:34:44
(UTC+00:00)

Cosmos 1726 - Pass Details

Date: 26 January 2020
Orbit: 483 x 500 km, 82.5° (Epoch: 23 February)

Event Time Altitude Azimuth Distance (km) Brightness Sun altitude
Exits shadow 07:35:39 - 283° (WNW) 1,793 4.3 -7.0°
Reaches altitude 10° 07:36:22 10° 294° (WNW) 1,681 4.1 -6.9°
Maximum altitude 07:37:30 11° 312° (NW) 1,611 4.1 -6.8°
Drops below altitude 10° 07:38:38 10° 330° (NNW) 1,682 4.3 -6.7°
Sets 07:42:14 0° 7° (N) 2,567 5.5 -6.3°
